When you browse on this site, cookies collect data to enhance your experience and personalize the content and advertising you see.
Visit our Privacy Policy to learn more. By continuing to use the site, you agree to this use of cookies and data.
  • Em Portugal
  • Lista de países
  • Para 7 dias
  • Temperatura da água
  • Mapas de satélite
  • Mapa do tempo
  • Widgets de tempo
  • user-avatar
    Iniciar Sessão

    Previsão horária em Brod

    Hoje, 24 Junho, Segunda-feira

    Tempo Temperatura Precipitação Vento Pressão Humidade
    00:00 +15°C° 0 mm 4 m/s 752 mmHg 94%
    01:00 +15°C° 0 mm 4 m/s 753 mmHg 93%
    02:00 +15°C° 0 mm 4 m/s 753 mmHg 92%
    03:00 +15°C° 0 mm 4 m/s 753 mmHg 92%
    04:00 +15°C° 0 mm 4 m/s 753 mmHg 92%
    05:00 +15°C° 0 mm 4 m/s 753 mmHg 92%
    06:00 +17°C° 0 mm 4 m/s 753 mmHg 87%
    07:00 +18°C° 0 mm 4 m/s 754 mmHg 81%
    08:00 +20°C° 0 mm 5 m/s 755 mmHg 76%
    09:00 +21°C° 0 mm 5 m/s 755 mmHg 72%
    10:00 +22°C° 0 mm 5 m/s 755 mmHg 68%
    11:00 +23°C° 0 mm 5 m/s 755 mmHg 64%
    12:00 +23°C° 0 mm 5 m/s 755 mmHg 63%
    13:00 +23°C° 0 mm 5 m/s 755 mmHg 62%
    14:00 +25°C° 0 mm 5 m/s 755 mmHg 61%
    15:00 +23°C° 0 mm 5 m/s 755 mmHg 63%
    16:00 +23°C° 0 mm 5 m/s 755 mmHg 65%
    17:00 +23°C° 0 mm 5 m/s 755 mmHg 67%
    18:00 +21°C° 0 mm 4 m/s 755 mmHg 72%
    19:00 +20°C° 0 mm 3 m/s 756 mmHg 77%
    20:00 +18°C° 0 mm 3 m/s 756 mmHg 82%
    21:00 +17°C° 0 mm 3 m/s 756 mmHg 84%
    22:00 +17°C° 0 mm 3 m/s 756 mmHg 85%
    23:00 +16°C° 0 mm 3 m/s 756 mmHg 86%

    Amanhã, 25 Junho, Terça-feira

    Tempo Temperatura Precipitação Vento Pressão Humidade
    00:00 +14°C° 0 mm 3 m/s 757 mmHg 87%
    01:00 +14°C° 0 mm 3 m/s 757 mmHg 88%
    02:00 +13°C° 0 mm 3 m/s 758 mmHg 89%
    03:00 +13°C° 0 mm 3 m/s 758 mmHg 88%
    04:00 +13°C° 0 mm 3 m/s 757 mmHg 87%
    05:00 +13°C° 0 mm 3 m/s 757 mmHg 85%
    06:00 +16°C° 0 mm 3 m/s 758 mmHg 81%
    07:00 +18°C° 0 mm 3 m/s 758 mmHg 77%
    08:00 +19°C° 0 mm 3 m/s 758 mmHg 73%
    09:00 +21°C° 0 mm 3 m/s 759 mmHg 69%
    10:00 +22°C° 0 mm 3 m/s 759 mmHg 64%
    11:00 +24°C° 0 mm 3 m/s 759 mmHg 60%
    12:00 +25°C° 0 mm 3 m/s 759 mmHg 59%
    13:00 +25°C° 0 mm 3 m/s 759 mmHg 58%
    14:00 +25°C° 0 mm 3 m/s 759 mmHg 57%
    15:00 +25°C° 0 mm 3 m/s 758 mmHg 59%
    16:00 +24°C° 0 mm 3 m/s 758 mmHg 61%
    17:00 +24°C° 0 mm 3 m/s 758 mmHg 63%
    18:00 +21°C° 0 mm 3 m/s 758 mmHg 68%
    19:00 +20°C° 0 mm 3 m/s 758 mmHg 73%
    20:00 +18°C° 0 mm 2 m/s 758 mmHg 78%
    21:00 +17°C° 0 mm 2 m/s 758 mmHg 79%
    22:00 +18°C° 0 mm 1 m/s 758 mmHg 81%
    23:00 +16°C° 0 mm 1 m/s 758 mmHg 82%

    Depois de amanhã, 26 Junho, Quarta-feira

    Tempo Temperatura Precipitação Vento Pressão Humidade
    00:00 +15°C° 0 mm 1 m/s 758 mmHg 83%
    01:00 +15°C° 0 mm 1 m/s 758 mmHg 84%
    02:00 +13°C° 0 mm 0 m/s 758 mmHg 85%
    03:00 +14°C° 0 mm 0 m/s 758 mmHg 84%
    04:00 +14°C° 0 mm 0 m/s 758 mmHg 84%
    05:00 +14°C° 0 mm 0 m/s 757 mmHg 83%
    06:00 +16°C° 0 mm 0 m/s 757 mmHg 78%
    07:00 +17°C° 0 mm 0 m/s 757 mmHg 73%
    08:00 +21°C° 0 mm 1 m/s 757 mmHg 69%
    09:00 +22°C° 0 mm 1 m/s 757 mmHg 64%
    10:00 +23°C° 0 mm 1 m/s 756 mmHg 60%
    11:00 +24°C° 0 mm 1 m/s 756 mmHg 56%
    12:00 +25°C° 0 mm 2 m/s 755 mmHg 55%
    13:00 +25°C° 0 mm 2 m/s 755 mmHg 54%
    14:00 +26°C° 0 mm 2 m/s 755 mmHg 53%
    15:00 +26°C° 0 mm 2 m/s 754 mmHg 55%
    16:00 +26°C° 0 mm 2 m/s 753 mmHg 58%
    17:00 +26°C° 0 mm 2 m/s 753 mmHg 61%
    18:00 +25°C° 0 mm 2 m/s 752 mmHg 66%
    19:00 +23°C° 0 mm 2 m/s 752 mmHg 72%
    20:00 +21°C° 0 mm 2 m/s 751 mmHg 77%
    21:00 +20°C° 0 mm 2 m/s 751 mmHg 79%
    22:00 +19°C° 0 mm 2 m/s 750 mmHg 82%
    23:00 +18°C° 0 mm 2 m/s 750 mmHg 84%

    27 Junho, Quinta-feira

    Tempo Temperatura Precipitação Vento Pressão Humidade
    00:00 +18°C° 0 mm 2 m/s 749 mmHg 85%
    01:00 +18°C° 0 mm 3 m/s 748 mmHg 86%
    02:00 +18°C° 0 mm 3 m/s 748 mmHg 87%
    03:00 +18°C° 0 mm 4 m/s 747 mmHg 87%
    04:00 +18°C° 0 mm 4 m/s 746 mmHg 87%
    05:00 +19°C° 0 mm 5 m/s 745 mmHg 87%
    06:00 +19°C° 1 mm 5 m/s 744 mmHg 88%
    07:00 +20°C° 1 mm 5 m/s 744 mmHg 88%
    08:00 +21°C° 1 mm 6 m/s 743 mmHg 88%
    09:00 +22°C° 0.7 mm 6 m/s 742 mmHg 88%
    10:00 +22°C° 0.7 mm 6 m/s 741 mmHg 88%
    11:00 +22°C° 0.7 mm 6 m/s 741 mmHg 88%
    12:00 +23°C° 0.5 mm 6 m/s 740 mmHg 84%
    13:00 +24°C° 0.5 mm 6 m/s 740 mmHg 80%
    14:00 +26°C° 0.5 mm 7 m/s 739 mmHg 76%
    15:00 +23°C° 0.7 mm 7 m/s 739 mmHg 78%
    16:00 +22°C° 0.7 mm 8 m/s 739 mmHg 81%
    17:00 +21°C° 0.7 mm 9 m/s 739 mmHg 83%
    18:00 +18°C° 0.1 mm 8 m/s 740 mmHg 83%
    19:00 +16°C° 0.1 mm 7 m/s 740 mmHg 82%
    20:00 +15°C° 0.1 mm 5 m/s 740 mmHg 82%
    21:00 +14°C° 0 mm 6 m/s 740 mmHg 81%
    22:00 +14°C° 0 mm 6 m/s 740 mmHg 79%
    23:00 +14°C° 0 mm 6 m/s 741 mmHg 78%

    28 Junho, Sexta-feira

    Tempo Temperatura Precipitação Vento Pressão Humidade
    00:00 +14°C° 0 mm 6 m/s 741 mmHg 77%
    01:00 +14°C° 0 mm 6 m/s 740 mmHg 75%
    02:00 +14°C° 0 mm 6 m/s 740 mmHg 74%
    03:00 +12°C° 0 mm 7 m/s 740 mmHg 76%
    04:00 +11°C° 0 mm 7 m/s 740 mmHg 77%
    05:00 +10°C° 0 mm 7 m/s 740 mmHg 79%
    06:00 +11°C° 0 mm 8 m/s 740 mmHg 77%
    07:00 +12°C° 0 mm 9 m/s 739 mmHg 75%
    08:00 +13°C° 0 mm 9 m/s 739 mmHg 73%
    09:00 +13°C° 0 mm 9 m/s 739 mmHg 72%
    10:00 +15°C° 0 mm 9 m/s 739 mmHg 71%
    11:00 +16°C° 0 mm 9 m/s 739 mmHg 70%
    12:00 +16°C° 0.2 mm 9 m/s 739 mmHg 71%
    13:00 +16°C° 0.2 mm 8 m/s 739 mmHg 71%
    14:00 +16°C° 0.2 mm 8 m/s 739 mmHg 72%
    15:00 +16°C° 0.3 mm 8 m/s 739 mmHg 73%
    16:00 +16°C° 0.3 mm 8 m/s 739 mmHg 74%
    17:00 +16°C° 0.3 mm 7 m/s 740 mmHg 76%
    18:00 +15°C° 0.1 mm 6 m/s 740 mmHg 76%
    19:00 +14°C° 0.1 mm 5 m/s 740 mmHg 76%
    20:00 +14°C° 0.1 mm 4 m/s 740 mmHg 76%
    21:00 +13°C° 0 mm 5 m/s 740 mmHg 75%
    22:00 +12°C° 0 mm 5 m/s 740 mmHg 74%
    23:00 +12°C° 0 mm 5 m/s 740 mmHg 72%

    29 Junho, Sábado

    Tempo Temperatura Precipitação Vento Pressão Humidade
    00:00 +11°C° 0 mm 6 m/s 739 mmHg 72%
    01:00 +10°C° 0 mm 6 m/s 739 mmHg 73%
    02:00 +10°C° 0 mm 6 m/s 739 mmHg 73%
    03:00 +10°C° 0 mm 6 m/s 739 mmHg 74%
    04:00 +9°C° 0 mm 7 m/s 739 mmHg 75%
    05:00 +9°C° 0 mm 7 m/s 739 mmHg 76%
    06:00 +9°C° 0 mm 7 m/s 739 mmHg 74%
    07:00 +10°C° 0 mm 8 m/s 739 mmHg 73%
    08:00 +10°C° 0 mm 8 m/s 739 mmHg 71%
    09:00 +10°C° 0 mm 8 m/s 739 mmHg 70%
    10:00 +10°C° 0 mm 8 m/s 739 mmHg 68%
    11:00 +10°C° 0 mm 8 m/s 740 mmHg 67%
    12:00 +10°C° 0.2 mm 8 m/s 740 mmHg 70%
    13:00 +10°C° 0.2 mm 7 m/s 740 mmHg 74%
    14:00 +10°C° 0.2 mm 6 m/s 740 mmHg 77%
    15:00 +10°C° 0.1 mm 6 m/s 740 mmHg 78%
    16:00 +10°C° 0.1 mm 6 m/s 740 mmHg 78%
    17:00 +10°C° 0.1 mm 6 m/s 740 mmHg 79%
    18:00 +10°C° 0.2 mm 7 m/s 740 mmHg 79%
    19:00 +10°C° 0.2 mm 7 m/s 740 mmHg 79%
    20:00 +9°C° 0.2 mm 7 m/s 740 mmHg 78%
    21:00 +9°C° 0 mm 7 m/s 740 mmHg 76%
    22:00 +10°C° 0 mm 7 m/s 740 mmHg 73%
    23:00 +10°C° 0 mm 7 m/s 740 mmHg 70%
    Mostrar mais